Regional Weather Roundup
Issued by NWS Jackson, KY

Home | Current Version | Previous Version | Graphics & Text | Print | Product List | Glossary On
Versions: 1 2 3 4 5 6 7 8 9 10 11 12 13 14 15 16 17 18 19 20 21 22 23 24 25 26 27 28 29 30 31 32 33 34 35 36 37 38 39 40 41 42 43 44 45 46 47 48 49 50
000
ASUS43 KJKL 300710
RWRJKL

EAST KENTUCKY HOURLY WEATHER ROUNDUP
NATIONAL WEATHER SERVICE JACKSON KY
300 AM EDT SUN AUG 30 2015

NOTE: "FAIR" INDICATES FEW OR NO CLOUDS BELOW 12,000 FEET WITH
NO SIGNIFICANT WEATHER AND/OR OBSTRUCTIONS TO VISIBILITY.

* THESE REPORTS ARE NOT UNDER NWS QUALITY CONTROL AND MAY NOT
  REPORT WEATHER SUCH AS PRECIPITATION AND FOG.

KYZ079-080-083-085-087-088-110-112-115-119-120-300800
...EASTERN KENTUCKY...

CITY           SKY/WX    TMP DP  RH WIND       PRES   REMARKS
JACKSON        CLEAR     68  63  84 CALM      30.13F
LONDON         CLEAR     67  62  84 CALM      30.14S
SOMERSET*      CLEAR     66  66 100 CALM      30.13F FOG
MONTICELLO*    PTCLDY    66  66 100 CALM      30.15F FOG
MIDDLESBORO*   CLEAR     63  63  99 CALM      30.15S
HARLAN APT*      N/A     63  63 100 MISG      30.16F
HAZARD APT*    PTSUNNY   66  66 100 CALM      30.14S
BLACK MTN*       N/A     63  57  82 SW8         N/A
PIKEVILLE APT* CLEAR     68  63  83 CALM      30.14S
BIG SANDY*     SUNNY     67  64  89 CALM      30.13S
MOREHEAD APT*  PTSUNNY   68  66  94 CALM      30.13S
$$

KYZ035-036-041-042-044-050-067-078-099-300800
...CENTRAL KENTUCKY...

CITY           SKY/WX    TMP DP  RH WIND       PRES   REMARKS
MT STERLING*   CLEAR     68  68 100 SW5       30.13S
FLEMING/MASON* PTCLDY    66  66 100 S5        30.12S
DANVILLE*      CLEAR     68  64  88 CALM      30.13R
RICHMOND*      CLEAR     70  64  83 CALM      30.11F
LEXINGTON      CLEAR     70  66  87 SW8       30.11S
FRANKFORT      PTCLDY    70  66  87 S6        30.09S
$$

KYZ091>093-OHZ055-061-077-WVZ005-015-034-035-042-300800
...SOUTHERN OHIO/WEST VIRGINIA...

CITY           SKY/WX    TMP DP  RH WIND       PRES   REMARKS
COVINGTON      MOCLDY    68  65  90 S3        30.08F
COLUMBUS       LGT RAIN  68  66  93 SW10      30.08R
DAYTON         LGT RAIN  68  66  93 SW10      30.09S
WILMINGTON     PTCLDY    67  64  90 CALM      30.09F
HUNTINGTON     MOCLDY    65  64  97 CALM      30.10S
CHARLESTON     PTCLDY    64  63  96 CALM      30.10F
PINEVILLE*     PTCLDY    61  61 100 MISG      30.22S FOG
BECKLEY        PTCLDY    63  57  81 CALM      30.20S
BLUEFIELD      MOCLDY    68  55  63 CALM      30.22F
$$

VAZ002-007-008-TNZ017-027-036-066-071-300800
...SOUTHWEST VIRGINIA/EAST TENNESSEE...

CITY           SKY/WX    TMP DP  RH WIND       PRES   REMARKS
WISE*          CLEAR     66  55  68 S3        30.22S
JONESVILLE*    SUNNY     61  61 100 CALM      30.18S FOG
ABINGDON*      CLOUDY    68  61  79 CALM      30.19S
BRISTOL        CLOUDY    65  63  93 CALM      30.16F
KNOXVILLE      CLOUDY    71  65  81 CALM      30.11F
OAK RIDGE      MOCLDY    72  66  81 CALM      30.13F
CROSSVILLE     CLOUDY    70  63  78 CALM      30.17S
NASHVILLE      PTCLDY    70  66  87 CALM      30.10S
$$

...KEY TO REMARKS...
VSB - VISIBILITY IN MILES
WCI - WIND CHILL INDEX
HX  - HEAT INDEX

$$



USA.gov is the U.S. government's official web portal to all federal, state and local government web resources and services.